| time (UTC) | temp F | wind direction | speed MPH | gust MPH | rain 1hr in | rain 24hr in | rain mn in | humidity % | barometer mb |
| 20260504034504 | 28 | 174 | 1.0 | 3.0 | 0.00 | 0.00 | 0.00 | 79 | 1005.2 |
| 20260504033604 | 28 | 174 | 1.0 | 4.0 | 0.00 | 0.00 | 0.00 | 79 | 1004.5 |
| 20260504032725 | 28 | 174 | 1.0 | 4.0 | 0.00 | 0.00 | 0.00 | 79 | 1004.4 |
| 20260504031804 | 28 | 174 | 0.0 | 4.0 | 0.00 | 0.00 | 0.00 | 80 | 1004.4 |
| 20260504030904 | 28 | 171 | 0.0 | 1.0 | 0.00 | 0.00 | 0.00 | 81 | 1004.4 |
| 20260504030004 | 27 | 171 | 1.0 | 4.0 | 0.00 | 0.00 | 0.00 | 81 | 1004.5 |
| 20260504025404 | 27 | 175 | 1.0 | 6.0 | 0.00 | 0.00 | 0.00 | 82 | 1004.4 |
| 20260504024504 | 27 | 175 | 2.0 | 7.0 | 0.00 | 0.00 | 0.00 | 82 | 1004.5 |
| 20260504023604 | 26 | 165 | 0.0 | 2.0 | 0.00 | 0.00 | 0.00 | 83 | 1004.5 |
| 20260504022704 | 26 | 211 | 1.0 | 5.0 | 0.00 | 0.00 | 0.00 | 83 | 1004.5 |
| 20260504021804 | 26 | 307 | 0.0 | 4.0 | 0.00 | 0.00 | 0.00 | 82 | 1004.5 |
| 20260504020904 | 26 | 0 | 0.0 | 0.0 | 0.00 | 0.00 | 0.00 | 83 | 1004.6 |
| 20260504015425 | 26 | 307 | 0.0 | 1.0 | 0.00 | 0.00 | 0.00 | 83 | 1004.7 |
| 20260504014504 | 26 | 307 | 0.0 | 1.0 | 0.00 | 0.00 | 0.00 | 83 | 1004.8 |
| 20260504013604 | 26 | 0 | 0.0 | 0.0 | 0.00 | 0.00 | 0.00 | 83 | 1004.8 |
| 20260504012725 | 26 | 0 | 0.0 | 0.0 | 0.00 | 0.00 | 0.00 | 83 | 1004.9 |
| 20260504011804 | 26 | 0 | 0.0 | 0.0 | 0.00 | 0.00 | 0.00 | 83 | 1004.9 |
| 20260504010904 | 26 | 0 | 0.0 | 0.0 | 0.00 | 0.00 | 0.00 | 83 | 1004.9 |
| 20260504010004 | 26 | 0 | 0.0 | 0.0 | 0.00 | 0.00 | 0.00 | 83 | 1004.8 |
| 20260504005404 | 26 | 0 | 0.0 | 0.0 | 0.00 | 0.00 | 0.00 | 82 | 1004.9 |
| 20260504004504 | 26 | 0 | 0.0 | 0.0 | 0.00 | 0.00 | 0.00 | 81 | 1004.9 |
| 20260504003604 | 27 | 0 | 0.0 | 0.0 | 0.00 | 0.00 | 0.00 | 81 | 1005.0 |
| 20260504002704 | 27 | 0 | 0.0 | 0.0 | 0.00 | 0.00 | 0.00 | 80 | 1005.0 |
| 20260504001804 | 28 | 0 | 0.0 | 0.0 | 0.00 | 0.00 | 0.00 | 79 | 1005.1 |
| 20260504000904 | 28 | 0 | 0.0 | 0.0 | 0.00 | 0.00 | 0.00 | 80 | 1005.1 |
| 20260504000004 | 28 | 0 | 0.0 | 0.0 | 0.00 | 0.00 | 0.00 | 80 | 1005.2 |
| 20260503235404 | 28 | 0 | 0.0 | 0.0 | 0.00 | 0.00 | 0.00 | 80 | 1005.1 |
| 20260503234504 | 28 | 307 | 0.0 | 1.0 | 0.00 | 0.00 | 0.00 | 81 | 1005.1 |
| 20260503233604 | 28 | 307 | 0.0 | 2.0 | 0.00 | 0.00 | 0.00 | 80 | 1005.2 |
| 20260503232704 | 28 | 307 | 0.0 | 2.0 | 0.00 | 0.00 | 0.00 | 80 | 1005.2 |
| 20260503231804 | 28 | 0 | 0.0 | 0.0 | 0.00 | 0.00 | 0.00 | 81 | 1005.2 |
| 20260503230904 | 28 | 0 | 0.0 | 0.0 | 0.00 | 0.00 | 0.00 | 82 | 1005.1 |
| 20260503230004 | 27 | 0 | 0.0 | 0.0 | 0.00 | 0.00 | 0.00 | 81 | 1005.2 |
| 20260503225425 | 27 | 0 | 0.0 | 0.0 | 0.00 | 0.00 | 0.00 | 81 | 1005.1 |
| 20260503224525 | 27 | 0 | 0.0 | 0.0 | 0.00 | 0.00 | 0.00 | 79 | 1005.2 |
| 20260503223625 | 28 | 0 | 0.0 | 0.0 | 0.00 | 0.00 | 0.00 | 80 | 1005.2 |
| 20260503222704 | 28 | 0 | 0.0 | 0.0 | 0.00 | 0.00 | 0.00 | 79 | 1005.2 |
| 20260503221804 | 29 | 0 | 0.0 | 0.0 | 0.00 | 0.00 | 0.00 | 77 | 1005.3 |
| 20260503220925 | 29 | 0 | 0.0 | 0.0 | 0.00 | 0.00 | 0.00 | 79 | 1005.3 |
| 20260503220025 | 29 | 307 | 0.0 | 1.0 | 0.00 | 0.00 | 0.00 | 79 | 1005.3 |
| 20260503215425 | 29 | 307 | 1.0 | 2.0 | 0.00 | 0.00 | 0.00 | 79 | 1005.3 |
| 20260503214504 | 29 | 307 | 1.0 | 2.0 | 0.00 | 0.00 | 0.00 | 79 | 1005.3 |
| 20260503213625 | 29 | 307 | 1.0 | 2.0 | 0.00 | 0.00 | 0.00 | 78 | 1005.3 |
| 20260503212704 | 29 | 307 | 1.0 | 2.0 | 0.00 | 0.00 | 0.00 | 77 | 1005.3 |
| 20260503211804 | 29 | 307 | 1.0 | 2.0 | 0.00 | 0.00 | 0.00 | 77 | 1005.4 |
| 20260503210904 | 30 | 307 | 2.0 | 3.0 | 0.00 | 0.00 | 0.00 | 76 | 1005.5 |
| 20260503210005 | 30 | 307 | 2.0 | 3.0 | 0.00 | 0.00 | 0.00 | 75 | 1005.6 |
| 20260503205404 | 31 | 308 | 3.0 | 6.0 | 0.00 | 0.00 | 0.00 | 74 | 1005.6 |
| 20260503204504 | 30 | 320 | 3.0 | 5.0 | 0.00 | 0.00 | 0.00 | 75 | 1005.5 |
| 20260503203625 | 30 | 320 | 3.0 | 5.0 | 0.00 | 0.00 | 0.00 | 75 | 1005.6 |
| 20260503202704 | 30 | 320 | 3.0 | 4.0 | 0.00 | 0.00 | 0.00 | 74 | 1005.7 |
| 20260503201804 | 31 | 320 | 3.0 | 4.0 | 0.00 | 0.00 | 0.00 | 71 | 1005.6 |
| 20260503200904 | 32 | 320 | 3.0 | 5.0 | 0.00 | 0.00 | 0.00 | 69 | 1005.7 |
| 20260503200025 | 33 | 313 | 4.0 | 6.0 | 0.00 | 0.00 | 0.00 | 69 | 1005.7 |
| 20260503195404 | 33 | 317 | 3.0 | 5.0 | 0.00 | 0.00 | 0.00 | 70 | 1005.7 |
| 20260503194504 | 32 | 317 | 3.0 | 5.0 | 0.00 | 0.00 | 0.00 | 71 | 1005.7 |
| 20260503193604 | 32 | 317 | 3.0 | 5.0 | 0.00 | 0.00 | 0.00 | 70 | 1005.7 |
| 20260503192704 | 32 | 317 | 3.0 | 5.0 | 0.00 | 0.00 | 0.00 | 70 | 1005.7 |
| 20260503191804 | 32 | 317 | 3.0 | 5.0 | 0.00 | 0.00 | 0.00 | 70 | 1005.7 |
| 20260503190904 | 32 | 317 | 2.0 | 3.0 | 0.00 | 0.00 | 0.00 | 69 | 1005.6 |
| 20260503190025 | 34 | 317 | 2.0 | 4.0 | 0.00 | 0.00 | 0.00 | 66 | 1005.6 |
| 20260503185404 | 34 | 317 | 2.0 | 4.0 | 0.00 | 0.00 | 0.00 | 66 | 1005.6 |
| 20260503184504 | 35 | 317 | 2.0 | 4.0 | 0.00 | 0.00 | 0.00 | 65 | 1005.6 |
| 20260503183604 | 35 | 317 | 1.0 | 3.0 | 0.00 | 0.00 | 0.00 | 65 | 1005.6 |
| 20260503182704 | 36 | 317 | 1.0 | 3.0 | 0.00 | 0.00 | 0.00 | 62 | 1005.5 |
| 20260503181804 | 38 | 317 | 2.0 | 4.0 | 0.00 | 0.00 | 0.00 | 60 | 1005.5 |
| 20260503180904 | 39 | 331 | 3.0 | 5.0 | 0.00 | 0.00 | 0.00 | 56 | 1005.5 |
| 20260503180004 | 40 | 325 | 3.0 | 4.0 | 0.00 | 0.00 | 0.00 | 54 | 1005.4 |
| 20260503175404 | 42 | 312 | 3.0 | 4.0 | 0.00 | 0.00 | 0.00 | 51 | 1005.3 |
| 20260503174504 | 42 | 312 | 3.0 | 4.0 | 0.00 | 0.00 | 0.00 | 50 | 1005.4 |
| 20260503173625 | 43 | 312 | 4.0 | 9.0 | 0.00 | 0.00 | 0.00 | 48 | 1005.3 |
| 20260503172704 | 44 | 325 | 6.0 | 10.0 | 0.00 | 0.00 | 0.00 | 46 | 1005.3 |
| 20260503171804 | 45 | 316 | 6.0 | 12.0 | 0.00 | 0.00 | 0.00 | 45 | 1005.2 |
| 20260503170904 | 45 | 302 | 7.0 | 14.0 | 0.00 | 0.00 | 0.00 | 45 | 1005.2 |
| 20260503150904 | 46 | 311 | 9.0 | 16.0 | 0.00 | 0.00 | 0.00 | 41 | 1004.9 |
| 20260503130925 | 48 | 308 | 11.0 | 19.0 | 0.00 | 0.00 | 0.00 | 46 | 1004.5 |
| 20260503080904 | 46 | 294 | 8.0 | 16.0 | 0.00 | 0.00 | 0.00 | 51 | 1003.8 |
| 20260503072703 | 45 | 295 | 7.0 | 15.0 | 0.00 | 0.00 | 0.00 | 53 | 1003.6 |
| 20260503071803 | 44 | 281 | 6.0 | 15.0 | 0.00 | 0.00 | 0.00 | 57 | 1003.3 |
| 20260503070903 | 45 | 279 | 5.0 | 15.0 | 0.00 | 0.00 | 0.00 | 56 | 1003.4 |
| 20260503054503 | 42 | 299 | 7.0 | 11.0 | 0.00 | 0.00 | 0.00 | 63 | 1003.1 |
| 20260503053603 | 42 | 298 | 6.0 | 11.0 | 0.00 | 0.00 | 0.00 | 64 | 1003.2 |
| 20260503052724 | 42 | 301 | 7.0 | 12.0 | 0.00 | 0.00 | 0.00 | 64 | 1003.1 |
| 20260503051803 | 41 | 294 | 7.0 | 13.0 | 0.00 | 0.00 | 0.00 | 65 | 1003.1 |
| 20260503050903 | 41 | 319 | 7.0 | 12.0 | 0.00 | 0.00 | 0.00 | 65 | 1002.9 |
| 20260503050003 | 41 | 305 | 7.0 | 13.0 | 0.00 | 0.00 | 0.00 | 65 | 1002.9 |
| 20260503045424 | 42 | 296 | 7.0 | 12.0 | 0.00 | 0.00 | 0.00 | 65 | 1002.8 |
| 20260503044504 | 41 | 298 | 6.0 | 12.0 | 0.00 | 0.00 | 0.00 | 65 | 1002.7 |
| 20260503043603 | 41 | 305 | 6.0 | 9.0 | 0.00 | 0.00 | 0.00 | 66 | 1002.8 |
| 20260503042724 | 41 | 299 | 6.0 | 11.0 | 0.00 | 0.00 | 0.00 | 66 | 1002.9 |
| 20260503041803 | 41 | 287 | 5.0 | 10.0 | 0.00 | 0.00 | 0.00 | 67 | 1002.3 |
| 20260503040903 | 40 | 299 | 5.0 | 10.0 | 0.00 | 0.00 | 0.00 | 67 | 1002.2 |
| 20260503040003 | 40 | 285 | 6.0 | 10.0 | 0.00 | 0.00 | 0.00 | 67 | 1002.1 |
| 20260503035424 | 40 | 290 | 6.0 | 10.0 | 0.00 | 0.00 | 0.00 | 67 | 1001.5 |